Year,Month,Day,Hour,Minute,Value (Times are PST for insolation in W/m^2)
2018,07,05,00,00,0.00
2018,07,05,00,01,0.00
2018,07,05,00,02,0.00
2018,07,05,00,03,0.00
2018,07,05,00,04,0.00
2018,07,05,00,05,0.00
2018,07,05,00,06,0.00
2018,07,05,00,07,0.00
2018,07,05,00,08,0.00
2018,07,05,00,09,0.00
2018,07,05,00,10,0.00
2018,07,05,00,11,0.00
2018,07,05,00,12,0.00
2018,07,05,00,13,0.00
2018,07,05,00,14,0.00
2018,07,05,00,15,0.00
2018,07,05,00,16,0.00
2018,07,05,00,17,0.00
2018,07,05,00,18,0.00
2018,07,05,00,19,0.00
2018,07,05,00,20,0.00
2018,07,05,00,21,0.00
2018,07,05,00,22,0.00
2018,07,05,00,23,0.00
2018,07,05,00,24,0.00
2018,07,05,00,25,0.00
2018,07,05,00,26,0.00
2018,07,05,00,27,0.00
2018,07,05,00,28,0.00
2018,07,05,00,29,0.00
2018,07,05,00,30,0.00
2018,07,05,00,31,0.00
2018,07,05,00,32,0.00
2018,07,05,00,33,0.00
2018,07,05,00,34,0.00
2018,07,05,00,35,0.00
2018,07,05,00,36,0.00
2018,07,05,00,37,0.00
2018,07,05,00,38,0.00
2018,07,05,00,39,0.00
2018,07,05,00,40,0.00
2018,07,05,00,41,0.00
2018,07,05,00,42,0.00
2018,07,05,00,43,0.00
2018,07,05,00,44,0.00
2018,07,05,00,45,0.00
2018,07,05,00,46,0.00
2018,07,05,00,47,0.00
2018,07,05,00,48,0.00
2018,07,05,00,49,0.00
2018,07,05,00,50,0.00
2018,07,05,00,51,0.00
2018,07,05,00,52,0.00
2018,07,05,00,53,0.00
2018,07,05,00,54,0.00
2018,07,05,00,55,0.00
2018,07,05,00,56,0.00
2018,07,05,00,57,0.00
2018,07,05,00,58,0.00
2018,07,05,00,59,0.00
2018,07,05,01,00,0.00
2018,07,05,01,01,0.00
2018,07,05,01,02,0.00
2018,07,05,01,03,0.00
2018,07,05,01,04,0.00
2018,07,05,01,05,0.00
2018,07,05,01,06,0.00
2018,07,05,01,07,0.00
2018,07,05,01,08,0.00
2018,07,05,01,09,0.00
2018,07,05,01,10,0.00
2018,07,05,01,11,0.00
2018,07,05,01,12,0.00
2018,07,05,01,13,0.00
2018,07,05,01,14,0.00
2018,07,05,01,15,0.00
2018,07,05,01,16,0.00
2018,07,05,01,17,0.00
2018,07,05,01,18,0.00
2018,07,05,01,19,0.00
2018,07,05,01,20,0.00
2018,07,05,01,21,0.00
2018,07,05,01,22,0.00
2018,07,05,01,23,0.00
2018,07,05,01,24,0.00
2018,07,05,01,25,0.00
2018,07,05,01,26,0.00
2018,07,05,01,27,0.00
2018,07,05,01,28,0.00
2018,07,05,01,29,0.00
2018,07,05,01,30,0.00
2018,07,05,01,31,0.00
2018,07,05,01,32,0.00
2018,07,05,01,33,0.00
2018,07,05,01,34,0.00
2018,07,05,01,35,0.00
2018,07,05,01,36,0.00
2018,07,05,01,37,0.00
2018,07,05,01,38,0.00
2018,07,05,01,39,0.00
2018,07,05,01,40,0.00
2018,07,05,01,41,0.00
2018,07,05,01,42,0.00
2018,07,05,01,43,0.00
2018,07,05,01,44,0.00
2018,07,05,01,45,0.00
2018,07,05,01,46,0.00
2018,07,05,01,47,0.00
2018,07,05,01,48,0.00
2018,07,05,01,49,0.00
2018,07,05,01,50,0.00
2018,07,05,01,51,0.00
2018,07,05,01,52,0.00
2018,07,05,01,53,0.00
2018,07,05,01,54,0.00
2018,07,05,01,55,0.00
2018,07,05,01,56,0.00
2018,07,05,01,57,0.00
2018,07,05,01,58,0.00
2018,07,05,01,59,0.00
2018,07,05,02,00,0.00
2018,07,05,02,01,0.00
2018,07,05,02,02,0.00
2018,07,05,02,03,0.00
2018,07,05,02,04,0.00
2018,07,05,02,05,0.00
2018,07,05,02,06,0.00
2018,07,05,02,07,0.00
2018,07,05,02,08,0.00
2018,07,05,02,09,0.00
2018,07,05,02,10,0.00
2018,07,05,02,11,0.00
2018,07,05,02,12,0.00
2018,07,05,02,13,0.00
2018,07,05,02,14,0.00
2018,07,05,02,15,0.00
2018,07,05,02,16,0.00
2018,07,05,02,17,0.00
2018,07,05,02,18,0.00
2018,07,05,02,19,0.00
2018,07,05,02,20,0.00
2018,07,05,02,21,0.00
2018,07,05,02,22,0.00
2018,07,05,02,23,0.00
2018,07,05,02,24,0.00
2018,07,05,02,25,0.00
2018,07,05,02,26,0.00
2018,07,05,02,27,0.00
2018,07,05,02,28,0.00
2018,07,05,02,29,0.00
2018,07,05,02,30,0.00
2018,07,05,02,31,0.00
2018,07,05,02,32,0.00
2018,07,05,02,33,0.00
2018,07,05,02,34,0.00
2018,07,05,02,35,0.00
2018,07,05,02,36,0.00
2018,07,05,02,37,0.00
2018,07,05,02,38,0.00
2018,07,05,02,39,0.00
2018,07,05,02,40,0.00
2018,07,05,02,41,0.00
2018,07,05,02,42,0.00
2018,07,05,02,43,0.00
2018,07,05,02,44,0.00
2018,07,05,02,45,0.00
2018,07,05,02,46,0.00
2018,07,05,02,47,0.00
2018,07,05,02,48,0.00
2018,07,05,02,49,0.00
2018,07,05,02,50,0.00
2018,07,05,02,51,0.00
2018,07,05,02,52,0.00
2018,07,05,02,53,0.00
2018,07,05,02,54,0.00
2018,07,05,02,55,0.00
2018,07,05,02,56,0.00
2018,07,05,02,57,0.00
2018,07,05,02,58,0.00
2018,07,05,02,59,0.00
2018,07,05,03,00,0.00
2018,07,05,03,01,0.00
2018,07,05,03,02,0.00
2018,07,05,03,06,0.00
2018,07,05,03,07,0.00
2018,07,05,03,08,0.00
2018,07,05,03,09,0.00
2018,07,05,03,10,0.00
2018,07,05,03,11,0.00
2018,07,05,03,12,0.00
2018,07,05,03,13,0.00
2018,07,05,03,14,0.00
2018,07,05,03,15,0.00
2018,07,05,03,16,0.00
2018,07,05,03,17,0.00
2018,07,05,03,18,0.00
2018,07,05,03,19,0.00
2018,07,05,03,20,0.00
2018,07,05,03,21,0.00
2018,07,05,03,22,0.00
2018,07,05,03,23,0.00
2018,07,05,03,24,0.00
2018,07,05,03,25,0.00
2018,07,05,03,26,0.00
2018,07,05,03,27,0.00
2018,07,05,03,28,0.00
2018,07,05,03,29,0.00
2018,07,05,03,30,0.00
2018,07,05,03,31,0.00
2018,07,05,03,32,0.00
2018,07,05,03,33,0.00
2018,07,05,03,34,0.00
2018,07,05,03,35,0.00
2018,07,05,03,36,0.00
2018,07,05,03,37,0.00
2018,07,05,03,38,0.00
2018,07,05,03,39,0.00
2018,07,05,03,40,0.00
2018,07,05,03,41,0.00
2018,07,05,03,42,0.00
2018,07,05,03,43,0.00
2018,07,05,03,44,0.00
2018,07,05,03,45,0.00
2018,07,05,03,46,0.00
2018,07,05,03,47,0.00
2018,07,05,03,48,0.00
2018,07,05,03,49,0.00
2018,07,05,03,50,0.00
2018,07,05,03,51,0.00
2018,07,05,03,52,0.00
2018,07,05,03,53,0.00
2018,07,05,03,54,0.00
2018,07,05,03,55,0.00
2018,07,05,03,56,0.00
2018,07,05,03,57,0.00
2018,07,05,03,58,0.00
2018,07,05,03,59,0.00
2018,07,05,04,00,0.00
2018,07,05,04,01,0.00
2018,07,05,04,02,0.00
2018,07,05,04,03,0.00
2018,07,05,04,04,0.00
2018,07,05,04,05,0.00
2018,07,05,04,06,0.00
2018,07,05,04,07,0.00
2018,07,05,04,08,0.00
2018,07,05,04,09,0.00
2018,07,05,04,10,0.00
2018,07,05,04,11,0.00
2018,07,05,04,12,0.00
2018,07,05,04,13,0.00
2018,07,05,04,14,0.00
2018,07,05,04,15,0.00
2018,07,05,04,16,0.00
2018,07,05,04,17,0.00
2018,07,05,04,18,0.00
2018,07,05,04,19,0.00
2018,07,05,04,20,0.00
2018,07,05,04,21,0.00
2018,07,05,04,22,0.00
2018,07,05,04,23,0.00
2018,07,05,04,24,0.00
2018,07,05,04,25,0.00
2018,07,05,04,26,0.00
2018,07,05,04,27,0.00
2018,07,05,04,28,0.00
2018,07,05,04,29,0.00
2018,07,05,04,30,0.00
2018,07,05,04,31,0.00
2018,07,05,04,32,0.00
2018,07,05,04,33,0.00
2018,07,05,04,34,0.00
2018,07,05,04,35,0.00
2018,07,05,04,36,0.00
2018,07,05,04,37,0.00
2018,07,05,04,38,0.00
2018,07,05,04,39,0.00
2018,07,05,04,40,0.00
2018,07,05,04,41,0.00
2018,07,05,04,42,0.00
2018,07,05,04,43,0.00
2018,07,05,04,44,0.00
2018,07,05,04,45,0.00
2018,07,05,04,46,0.00
2018,07,05,04,47,0.00
2018,07,05,04,48,0.00
2018,07,05,04,49,0.00
2018,07,05,04,50,0.00
2018,07,05,04,51,0.00
2018,07,05,04,52,0.00
2018,07,05,04,53,0.00
2018,07,05,04,54,0.00
2018,07,05,04,55,0.00
2018,07,05,04,56,0.00
2018,07,05,04,57,0.00
2018,07,05,04,58,0.00
2018,07,05,04,59,0.00
2018,07,05,05,00,0.00
2018,07,05,05,01,0.00
2018,07,05,05,02,0.00
2018,07,05,05,03,0.00
2018,07,05,05,04,0.00
2018,07,05,05,05,0.00
2018,07,05,05,06,0.00
2018,07,05,05,07,0.00
2018,07,05,05,08,0.00
2018,07,05,05,09,0.00
2018,07,05,05,10,0.00
2018,07,05,05,11,0.00
2018,07,05,05,12,0.00
2018,07,05,05,13,0.00
2018,07,05,05,14,0.00
2018,07,05,05,15,0.00
2018,07,05,05,16,0.00
2018,07,05,05,17,0.00
2018,07,05,05,18,0.00
2018,07,05,05,19,0.00
2018,07,05,05,20,0.00
2018,07,05,05,21,0.00
2018,07,05,05,22,0.00
2018,07,05,05,23,0.00
2018,07,05,05,24,0.00
2018,07,05,05,25,0.00
2018,07,05,05,26,0.00
2018,07,05,05,27,0.00
2018,07,05,05,28,0.00
2018,07,05,05,29,0.00
2018,07,05,05,30,0.00
2018,07,05,05,31,0.00
2018,07,05,05,32,0.00
2018,07,05,05,33,0.00
2018,07,05,05,34,0.00
2018,07,05,05,35,0.00
2018,07,05,05,36,0.00
2018,07,05,05,37,0.00
2018,07,05,05,38,5.00
2018,07,05,05,39,5.30
2018,07,05,05,40,7.50
2018,07,05,05,41,9.00
2018,07,05,05,42,9.70
2018,07,05,05,43,11.00
2018,07,05,05,44,11.60
2018,07,05,05,45,13.30
2018,07,05,05,46,15.50
2018,07,05,05,47,18.40
2018,07,05,05,48,20.70
2018,07,05,05,49,22.90
2018,07,05,05,50,25.00
2018,07,05,05,51,25.00
2018,07,05,05,52,25.00
2018,07,05,05,53,24.30
2018,07,05,05,54,23.00
2018,07,05,05,55,24.10
2018,07,05,05,56,25.00
2018,07,05,05,57,25.00
2018,07,05,05,58,25.80
2018,07,05,05,59,26.00
2018,07,05,06,00,26.00
2018,07,05,06,01,26.00
2018,07,05,06,02,26.40
2018,07,05,06,03,28.60
2018,07,05,06,04,30.70
2018,07,05,06,05,32.50
2018,07,05,06,06,33.00
2018,07,05,06,07,34.30
2018,07,05,06,08,35.00
2018,07,05,06,09,36.60
2018,07,05,06,10,38.70
2018,07,05,06,11,39.00
2018,07,05,06,12,40.00
2018,07,05,06,13,40.40
2018,07,05,06,14,42.00
2018,07,05,06,15,42.00
2018,07,05,06,16,42.00
2018,07,05,06,17,42.00
2018,07,05,06,18,40.80
2018,07,05,06,19,40.00
2018,07,05,06,20,40.00
2018,07,05,06,21,39.20
2018,07,05,06,22,40.00
2018,07,05,06,23,40.00
2018,07,05,06,24,40.00
2018,07,05,06,25,40.60
2018,07,05,06,26,42.00
2018,07,05,06,27,42.90
2018,07,05,06,28,45.10
2018,07,05,06,29,48.00
2018,07,05,06,30,51.80
2018,07,05,06,31,55.40
2018,07,05,06,32,59.40
2018,07,05,06,33,58.00
2018,07,05,06,34,60.00
2018,07,05,06,35,60.40
2018,07,05,06,36,62.00
2018,07,05,06,37,62.40
2018,07,05,06,38,64.80
2018,07,05,06,39,68.00
2018,07,05,06,40,70.80
2018,07,05,06,41,74.80
2018,07,05,06,42,78.40
2018,07,05,06,43,80.70
2018,07,05,06,44,83.90
2018,07,05,06,45,86.30
2018,07,05,06,46,88.60
2018,07,05,06,47,91.60
2018,07,05,06,48,93.80
2018,07,05,06,49,97.20
2018,07,05,06,50,102.80
2018,07,05,06,51,108.80
2018,07,05,06,52,114.20
2018,07,05,06,53,120.00
2018,07,05,06,54,132.60
2018,07,05,06,55,135.30
2018,07,05,06,56,141.60
2018,07,05,06,57,139.40
2018,07,05,06,58,135.00
2018,07,05,06,59,117.50
2018,07,05,07,00,110.10
2018,07,05,07,01,107.90
2018,07,05,07,02,102.80
2018,07,05,07,03,97.90
2018,07,05,07,04,95.40
2018,07,05,07,05,91.60
2018,07,05,07,06,86.30
2018,07,05,07,07,82.60
2018,07,05,07,08,78.60
2018,07,05,07,09,76.70
2018,07,05,07,10,73.90
2018,07,05,07,11,68.70
2018,07,05,07,12,64.50
2018,07,05,07,13,58.40
2018,07,05,07,14,53.90
2018,07,05,07,15,49.80
2018,07,05,07,16,47.30
2018,07,05,07,17,46.10
2018,07,05,07,18,46.00
2018,07,05,07,19,45.60
2018,07,05,07,20,43.40
2018,07,05,07,21,41.30
2018,07,05,07,22,39.50
2018,07,05,07,23,36.80
2018,07,05,07,24,33.10
2018,07,05,07,25,32.00
2018,07,05,07,26,30.40
2018,07,05,07,27,30.00
2018,07,05,07,28,31.90
2018,07,05,07,29,33.00
2018,07,05,07,30,33.40
2018,07,05,07,31,34.40
2018,07,05,07,32,33.00
2018,07,05,07,33,33.00
2018,07,05,07,34,33.00
2018,07,05,07,35,33.00
2018,07,05,07,36,34.40
2018,07,05,07,37,36.60
2018,07,05,07,38,38.70
2018,07,05,07,39,39.90
2018,07,05,07,40,42.20
2018,07,05,07,41,44.60
2018,07,05,07,42,47.50
2018,07,05,07,43,49.00
2018,07,05,07,44,49.00
2018,07,05,07,45,49.00
2018,07,05,07,46,50.20
2018,07,05,07,47,54.50
2018,07,05,07,48,60.80
2018,07,05,07,49,67.90
2018,07,05,07,50,73.80
2018,07,05,07,51,77.30
2018,07,05,07,52,79.60
2018,07,05,07,53,83.80
2018,07,05,07,54,89.20
2018,07,05,07,55,100.10
2018,07,05,07,56,114.00
2018,07,05,07,57,130.60
2018,07,05,07,58,148.20
2018,07,05,07,59,164.10
2018,07,05,08,00,177.30
2018,07,05,08,01,189.40
2018,07,05,08,02,200.60
2018,07,05,08,03,206.20
2018,07,05,08,04,206.70
2018,07,05,08,05,206.40
2018,07,05,08,06,209.70
2018,07,05,08,07,216.90
2018,07,05,08,08,225.40
2018,07,05,08,09,233.80
2018,07,05,08,10,239.80
2018,07,05,08,11,241.00
2018,07,05,08,12,234.40
2018,07,05,08,13,226.80
2018,07,05,08,14,225.40
2018,07,05,08,15,227.60
2018,07,05,08,16,228.20
2018,07,05,08,17,225.30
2018,07,05,08,18,224.00
2018,07,05,08,19,247.20
2018,07,05,08,20,249.40
2018,07,05,08,21,244.00
2018,07,05,08,22,245.70
2018,07,05,08,23,246.20
2018,07,05,08,24,251.90
2018,07,05,08,25,256.70
2018,07,05,08,26,254.00
2018,07,05,08,27,250.60
2018,07,05,08,28,252.20
2018,07,05,08,29,262.70
2018,07,05,08,30,278.60
2018,07,05,08,31,275.90
2018,07,05,08,32,308.80
2018,07,05,08,33,255.10
2018,07,05,08,34,232.60
2018,07,05,08,35,230.00
2018,07,05,08,36,231.80
2018,07,05,08,37,235.40
2018,07,05,08,38,228.80
2018,07,05,08,39,225.70
2018,07,05,08,40,211.70
2018,07,05,08,41,198.20
2018,07,05,08,42,190.90
2018,07,05,08,43,214.00
2018,07,05,08,44,220.00
2018,07,05,08,45,220.00
2018,07,05,08,46,220.00
2018,07,05,08,47,220.00
2018,07,05,08,48,241.60
2018,07,05,08,49,270.00
2018,07,05,08,50,237.00
2018,07,05,08,51,243.10
2018,07,05,08,52,246.70
2018,07,05,08,53,247.30
2018,07,05,08,54,248.00
2018,07,05,08,55,256.10
2018,07,05,08,56,281.70
2018,07,05,08,57,303.50
2018,07,05,08,58,466.40
2018,07,05,08,59,400.50
2018,07,05,09,00,369.70
2018,07,05,09,01,408.20
2018,07,05,09,02,378.50
2018,07,05,09,03,348.80
2018,07,05,09,04,339.40
2018,07,05,09,05,356.00
2018,07,05,09,06,360.60
2018,07,05,09,07,368.00
2018,07,05,09,08,512.90
2018,07,05,09,09,434.40
2018,07,05,09,10,364.70
2018,07,05,09,11,301.00
2018,07,05,09,12,332.50
2018,07,05,09,13,371.00
2018,07,05,09,14,371.00
2018,07,05,09,15,371.00
2018,07,05,09,16,371.00
2018,07,05,09,17,601.30
2018,07,05,09,18,614.50
2018,07,05,09,19,645.50
2018,07,05,09,20,631.00
2018,07,05,09,21,691.80
2018,07,05,09,22,656.90
2018,07,05,09,23,705.00
2018,07,05,09,24,602.70
2018,07,05,09,25,519.00
2018,07,05,09,26,673.30
2018,07,05,09,27,735.00
2018,07,05,09,28,446.50
2018,07,05,09,29,458.10
2018,07,05,09,30,406.00
2018,07,05,09,31,381.00
2018,07,05,09,32,294.20
2018,07,05,09,33,339.40
2018,07,05,09,34,381.00
2018,07,05,09,35,361.50
2018,07,05,09,36,377.10
2018,07,05,09,37,355.60
2018,07,05,09,38,339.80
2018,07,05,09,39,350.60
2018,07,05,09,40,357.90
2018,07,05,09,41,380.00
2018,07,05,09,42,423.20
2018,07,05,09,43,596.00
2018,07,05,09,44,462.30
2018,07,05,09,45,214.00
2018,07,05,09,46,230.80
2018,07,05,09,47,201.60
2018,07,05,09,48,167.40
2018,07,05,09,49,163.50
2018,07,05,09,50,163.00
2018,07,05,09,51,164.90
2018,07,05,09,52,165.00
2018,07,05,09,53,269.20
2018,07,05,09,54,686.00
2018,07,05,09,55,686.00
2018,07,05,09,56,667.60
2018,07,05,09,57,649.60
2018,07,05,09,58,632.80
2018,07,05,09,59,613.00
2018,07,05,10,00,613.00
2018,07,05,10,01,619.80
2018,07,05,10,02,551.70
2018,07,05,10,03,577.90
2018,07,05,10,04,624.20
2018,07,05,10,05,624.20
2018,07,05,10,06,610.60
2018,07,05,10,07,661.00
2018,07,05,10,08,661.00
2018,07,05,10,09,661.00
2018,07,05,10,10,661.00
2018,07,05,10,11,700.80
2018,07,05,10,12,714.00
2018,07,05,10,13,714.90
2018,07,05,10,14,696.60
2018,07,05,10,15,705.90
2018,07,05,10,16,701.00
2018,07,05,10,17,701.00
2018,07,05,10,18,702.60
2018,07,05,10,19,706.00
2018,07,05,10,20,707.50
2018,07,05,10,21,709.30
2018,07,05,10,22,713.00
2018,07,05,10,23,714.80
2018,07,05,10,24,718.80
2018,07,05,10,25,725.90
2018,07,05,10,26,724.30
2018,07,05,10,27,726.50
2018,07,05,10,28,703.10
2018,07,05,10,29,678.20
2018,07,05,10,30,722.50
2018,07,05,10,31,714.00
2018,07,05,10,32,710.70
2018,07,05,10,33,707.80
2018,07,05,10,34,702.20
2018,07,05,10,35,702.80
2018,07,05,10,36,701.40
2018,07,05,10,37,704.70
2018,07,05,10,38,704.00
2018,07,05,10,39,707.00
2018,07,05,10,40,707.00
2018,07,05,10,41,708.50
2018,07,05,10,42,708.20
2018,07,05,10,43,705.70
2018,07,05,10,44,703.50
2018,07,05,10,45,701.40
2018,07,05,10,46,700.10
2018,07,05,10,47,700.90
2018,07,05,10,48,700.20
2018,07,05,10,49,700.80
2018,07,05,10,50,702.50
2018,07,05,10,51,707.40
2018,07,05,10,52,711.50
2018,07,05,10,53,715.00
2018,07,05,10,54,717.70
2018,07,05,10,55,717.50
2018,07,05,10,56,721.00
2018,07,05,10,57,722.00
2018,07,05,10,58,729.00
2018,07,05,10,59,729.60
2018,07,05,11,00,733.00
2018,07,05,11,01,734.20
2018,07,05,11,02,737.40
2018,07,05,11,03,737.50
2018,07,05,11,04,738.70
2018,07,05,11,05,742.60
2018,07,05,11,06,744.00
2018,07,05,11,07,744.80
2018,07,05,11,08,746.80
2018,07,05,11,09,747.00
2018,07,05,11,10,747.00
2018,07,05,11,11,746.50
2018,07,05,11,12,745.00
2018,07,05,11,13,746.60
2018,07,05,11,14,749.00
2018,07,05,11,15,750.70
2018,07,05,11,16,752.00
2018,07,05,11,17,753.50
2018,07,05,11,18,757.20
2018,07,05,11,19,762.50
2018,07,05,11,20,766.40
2018,07,05,11,21,773.00
2018,07,05,11,22,777.50
2018,07,05,11,23,779.00
2018,07,05,11,24,779.00
2018,07,05,11,25,797.50
2018,07,05,11,26,813.60
2018,07,05,11,27,807.50
2018,07,05,11,28,814.00
2018,07,05,11,29,834.80
2018,07,05,11,30,845.30
2018,07,05,11,31,842.10
2018,07,05,11,32,843.10
2018,07,05,11,33,837.80
2018,07,05,11,34,834.90
2018,07,05,11,35,827.20
2018,07,05,11,36,824.50
2018,07,05,11,37,823.20
2018,07,05,11,38,817.80
2018,07,05,11,39,816.00
2018,07,05,11,40,816.80
2018,07,05,11,41,817.00
2018,07,05,11,42,819.10
2018,07,05,11,43,822.00
2018,07,05,11,44,828.80
2018,07,05,11,45,813.60
2018,07,05,11,46,779.40
2018,07,05,11,47,815.50
2018,07,05,11,48,843.20
2018,07,05,11,49,844.00
2018,07,05,11,50,842.50
2018,07,05,11,51,843.60
2018,07,05,11,52,842.20
2018,07,05,11,53,839.10
2018,07,05,11,54,831.30
2018,07,05,11,55,836.50
2018,07,05,11,56,840.70
2018,07,05,11,57,836.80
2018,07,05,11,58,850.00
2018,07,05,11,59,849.20
2018,07,05,12,00,848.50
2018,07,05,12,01,859.60
2018,07,05,12,02,866.60
2018,07,05,12,03,861.60
2018,07,05,12,04,859.70
2018,07,05,12,05,852.80
2018,07,05,12,06,847.80
2018,07,05,12,07,853.00
2018,07,05,12,08,855.00
2018,07,05,12,09,859.00
2018,07,05,12,10,860.00
2018,07,05,12,11,858.70
2018,07,05,12,12,859.40
2018,07,05,12,13,864.00
2018,07,05,12,14,856.90
2018,07,05,12,15,860.20
2018,07,05,12,16,856.60
2018,07,05,12,17,857.20
2018,07,05,12,18,845.20
2018,07,05,12,19,844.40
2018,07,05,12,20,856.00
2018,07,05,12,21,866.10
2018,07,05,12,22,877.40
2018,07,05,12,23,883.20
2018,07,05,12,24,884.00
2018,07,05,12,25,884.00
2018,07,05,12,26,901.30
2018,07,05,12,27,871.80
2018,07,05,12,28,842.00
2018,07,05,12,29,800.90
2018,07,05,12,30,705.00
2018,07,05,12,31,772.50
2018,07,05,12,32,881.70
2018,07,05,12,33,901.00
2018,07,05,12,34,897.10
2018,07,05,12,35,867.60
2018,07,05,12,36,860.00
2018,07,05,12,37,791.60
2018,07,05,12,38,757.10
2018,07,05,12,39,819.50
2018,07,05,12,40,889.00
2018,07,05,12,41,898.40
2018,07,05,12,42,890.50
2018,07,05,12,43,888.60
2018,07,05,12,44,880.00
2018,07,05,12,45,860.00
2018,07,05,12,46,854.00
2018,07,05,12,47,854.00
2018,07,05,12,48,793.80
2018,07,05,12,49,748.00
2018,07,05,12,50,751.20
2018,07,05,12,51,779.00
2018,07,05,12,52,835.80
2018,07,05,12,53,922.00
2018,07,05,12,54,924.10
2018,07,05,12,55,920.70
2018,07,05,12,56,915.10
2018,07,05,12,57,912.40
2018,07,05,12,58,907.50
2018,07,05,12,59,904.30
2018,07,05,13,00,907.30
2018,07,05,13,01,909.80
2018,07,05,13,02,912.00
2018,07,05,13,03,910.90
2018,07,05,13,04,908.00
2018,07,05,13,05,907.00
2018,07,05,13,06,905.70
2018,07,05,13,07,902.90
2018,07,05,13,08,902.00
2018,07,05,13,09,902.00
2018,07,05,13,10,895.80
2018,07,05,13,11,892.70
2018,07,05,13,12,890.30
2018,07,05,13,13,886.70
2018,07,05,13,14,882.90
2018,07,05,13,15,879.20
2018,07,05,13,16,875.90
2018,07,05,13,17,875.00
2018,07,05,13,18,872.70
2018,07,05,13,19,872.00
2018,07,05,13,20,868.40
2018,07,05,13,21,867.00
2018,07,05,13,22,866.70
2018,07,05,13,23,864.50
2018,07,05,13,24,863.00
2018,07,05,13,25,861.80
2018,07,05,13,26,860.50
2018,07,05,13,27,860.50
2018,07,05,13,28,860.00
2018,07,05,13,29,857.10
2018,07,05,13,30,854.30
2018,07,05,13,31,855.70
2018,07,05,13,32,856.00
2018,07,05,13,33,855.70
2018,07,05,13,34,854.40
2018,07,05,13,35,855.10
2018,07,05,13,36,854.20
2018,07,05,13,37,856.00
2018,07,05,13,38,854.90
2018,07,05,13,39,854.00
2018,07,05,13,40,854.00
2018,07,05,13,41,854.00
2018,07,05,13,42,854.00
2018,07,05,13,43,854.00
2018,07,05,13,44,854.00
2018,07,05,13,45,854.40
2018,07,05,13,46,856.00
2018,07,05,13,47,855.30
2018,07,05,13,48,854.90
2018,07,05,13,49,854.90
2018,07,05,13,50,855.20
2018,07,05,13,51,806.60
2018,07,05,13,52,842.60
2018,07,05,13,53,854.20
2018,07,05,13,54,832.30
2018,07,05,13,55,853.00
2018,07,05,13,56,852.60
2018,07,05,13,57,851.00
2018,07,05,13,58,850.30
2018,07,05,13,59,849.00
2018,07,05,14,00,849.00
2018,07,05,14,01,850.30
2018,07,05,14,02,849.50
2018,07,05,14,03,850.60
2018,07,05,14,04,851.00
2018,07,05,14,05,851.00
2018,07,05,14,06,850.80
2018,07,05,14,07,848.50
2018,07,05,14,08,847.60
2018,07,05,14,09,848.30
2018,07,05,14,10,847.00
2018,07,05,14,11,847.00
2018,07,05,14,12,846.40
2018,07,05,14,13,846.70
2018,07,05,14,14,846.20
2018,07,05,14,15,846.00
2018,07,05,14,16,847.00
2018,07,05,14,17,846.90
2018,07,05,14,18,846.20
2018,07,05,14,19,846.10
2018,07,05,14,20,844.00
2018,07,05,14,21,844.00
2018,07,05,14,22,844.00
2018,07,05,14,23,842.80
2018,07,05,14,24,843.40
2018,07,05,14,25,841.00
2018,07,05,14,26,840.00
2018,07,05,14,27,840.00
2018,07,05,14,28,840.20
2018,07,05,14,29,834.20
2018,07,05,14,30,812.70
2018,07,05,14,31,839.30
2018,07,05,14,32,837.50
2018,07,05,14,33,837.50
2018,07,05,14,34,836.20
2018,07,05,14,35,835.00
2018,07,05,14,36,835.00
2018,07,05,14,37,831.60
2018,07,05,14,38,832.80
2018,07,05,14,39,831.00
2018,07,05,14,40,831.00
2018,07,05,14,41,830.70
2018,07,05,14,42,829.30
2018,07,05,14,43,828.00
2018,07,05,14,44,828.00
2018,07,05,14,45,826.80
2018,07,05,14,46,826.00
2018,07,05,14,47,824.40
2018,07,05,14,48,824.00
2018,07,05,14,49,823.00
2018,07,05,14,50,822.80
2018,07,05,14,51,821.00
2018,07,05,14,52,820.40
2018,07,05,14,53,819.00
2018,07,05,14,54,818.10
2018,07,05,14,55,817.00
2018,07,05,14,56,817.00
2018,07,05,14,57,817.00
2018,07,05,14,58,816.20
2018,07,05,14,59,814.20
2018,07,05,15,00,813.90
2018,07,05,15,01,812.00
2018,07,05,15,02,812.00
2018,07,05,15,03,811.50
2018,07,05,15,04,810.70
2018,07,05,15,05,811.10
2018,07,05,15,06,802.30
2018,07,05,15,07,804.50
2018,07,05,15,08,806.10
2018,07,05,15,09,805.00
2018,07,05,15,10,803.30
2018,07,05,15,11,802.00
2018,07,05,15,12,802.00
2018,07,05,15,13,801.20
2018,07,05,15,14,798.00
2018,07,05,15,15,798.00
2018,07,05,15,16,796.70
2018,07,05,15,17,795.00
2018,07,05,15,18,793.80
2018,07,05,15,19,794.40
2018,07,05,15,20,793.40
2018,07,05,15,21,791.30
2018,07,05,15,22,789.10
2018,07,05,15,23,788.90
2018,07,05,15,24,788.00
2018,07,05,15,25,787.40
2018,07,05,15,26,785.30
2018,07,05,15,27,784.90
2018,07,05,15,28,783.80
2018,07,05,15,29,783.20
2018,07,05,15,30,782.60
2018,07,05,15,31,780.40
2018,07,05,15,32,779.10
2018,07,05,15,33,778.90
2018,07,05,15,34,776.80
2018,07,05,15,35,774.60
2018,07,05,15,36,772.80
2018,07,05,15,37,770.60
2018,07,05,15,38,767.10
2018,07,05,15,39,766.00
2018,07,05,15,40,765.40
2018,07,05,15,41,763.60
2018,07,05,15,42,761.40
2018,07,05,15,43,762.80
2018,07,05,15,44,759.00
2018,07,05,15,45,761.00
2018,07,05,15,46,760.40
2018,07,05,15,47,758.30
2018,07,05,15,48,757.20
2018,07,05,15,49,754.00
2018,07,05,15,50,752.30
2018,07,05,15,51,748.60
2018,07,05,15,52,745.60
2018,07,05,15,53,739.40
2018,07,05,15,54,743.40
2018,07,05,15,55,741.80
2018,07,05,15,56,737.00
2018,07,05,15,57,736.20
2018,07,05,15,58,733.60
2018,07,05,15,59,735.00
2018,07,05,16,00,733.20
2018,07,05,16,01,712.80
2018,07,05,16,02,713.60
2018,07,05,16,03,717.70
2018,07,05,16,04,695.80
2018,07,05,16,05,656.20
2018,07,05,16,06,722.20
2018,07,05,16,07,664.70
2018,07,05,16,08,608.00
2018,07,05,16,09,608.00
2018,07,05,16,10,608.00
2018,07,05,16,11,608.00
2018,07,05,16,12,674.00
2018,07,05,16,13,726.70
2018,07,05,16,14,706.40
2018,07,05,16,15,661.20
2018,07,05,16,16,675.30
2018,07,05,16,17,723.20
2018,07,05,16,18,711.20
2018,07,05,16,19,659.00
2018,07,05,16,20,659.00
2018,07,05,16,21,625.40
2018,07,05,16,22,563.00
2018,07,05,16,23,640.00
2018,07,05,16,24,717.00
2018,07,05,16,25,717.00
2018,07,05,16,26,469.80
2018,07,05,16,27,408.00
2018,07,05,16,28,408.00
2018,07,05,16,29,202.00
2018,07,05,16,30,202.00
2018,07,05,16,31,288.40
2018,07,05,16,32,490.00
2018,07,05,16,33,333.40
2018,07,05,16,34,142.00
2018,07,05,16,35,142.00
2018,07,05,16,36,142.00
2018,07,05,16,37,142.00
2018,07,05,16,38,581.50
2018,07,05,16,39,659.00
2018,07,05,16,40,659.00
2018,07,05,16,41,557.30
2018,07,05,16,42,125.00
2018,07,05,16,43,130.60
2018,07,05,16,44,151.80
2018,07,05,16,45,165.00
2018,07,05,16,46,217.80
2018,07,05,16,47,263.90
2018,07,05,16,48,269.00
2018,07,05,16,49,269.00
2018,07,05,16,50,325.90
2018,07,05,16,51,354.90
2018,07,05,16,52,286.60
2018,07,05,16,53,265.50
2018,07,05,16,54,264.50
2018,07,05,16,55,256.40
2018,07,05,16,56,247.30
2018,07,05,16,57,242.30
2018,07,05,16,58,251.00
2018,07,05,16,59,255.00
2018,07,05,17,00,255.00
2018,07,05,17,01,251.20
2018,07,05,17,02,216.00
2018,07,05,17,03,216.00
2018,07,05,17,04,216.00
2018,07,05,17,05,216.00
2018,07,05,17,06,469.40
2018,07,05,17,07,779.00
2018,07,05,17,08,779.00
2018,07,05,17,09,779.00
2018,07,05,17,10,420.50
2018,07,05,17,11,301.00
2018,07,05,17,12,301.00